Regional Weather Roundup
Issued by NWS

Home | Current Version | Previous Version | Text Only | Print | Product List | Glossary Off
Versions: 1 2 3 4 5 6 7 8 9 10 11 12 13 14 15 16 17 18 19 20 21 22 23 24 25 26 27 28 29 30 31 32 33 34 35 36 37 38 39 40 41 42 43 44 45 46 47 48 49 50

000
ASUS43 KOAX 060510
RWRNE

WEATHER ROUNDUP FOR NEBRASKA
NATIONAL WEATHER SERVICE OMAHA NE
1100 PM CST MON DEC 05 2016

NOTES: SATELLITE DATA IS BEING USED TO AUGMENT CLOUD COVER ABOVE
       12000 FEET.
       "FAIR" INDICATES FEW OR NO CLOUDS BELOW 12,000 FEET WITH NO
       SIGNIFICANT WEATHER AND/OR OBSTRUCTIONS TO VISIBILITY.

  * THESE STATIONS DO NOT REPORT WEATHER SUCH AS RAIN...SNOW OR FOG.

NEZ001>004-019>022-054>056-060600-
NEBRASKA PANHANDLE

CITY           SKY/WX    TMP DP  RH WIND       PRES   REMARKS
SCOTTSBLUFF    CLEAR     17   6  62 W16       29.95R WCI   2
ALLIANCE       CLEAR     13   7  77 W16       29.90R WCI  -3
CHADRON        CLEAR     16   7  67 SW6       29.96R WCI   7
KIMBALL        CLEAR     18  10  73 NW16G23   29.90S WCI   3
SIDNEY         CLOUDY    18   8  65 NW14      29.92R WCI   4
$$

NEZ057>060-069>072-079>082-060600-
SOUTHWEST NEBRASKA

CITY           SKY/WX    TMP DP  RH WIND       PRES   REMARKS
NORTH PLATTE   MOCLDY    24  15  68 NW8       29.94S WCI  15
IMPERIAL       PTCLDY    25  12  58 NW17      29.95R WCI  12
LEXINGTON      CLOUDY    28  15  59 N16       29.92S WCI  16
MCCOOK         CLOUDY    29  16  58 N16       29.94R WCI  17
OGALLALA       CLOUDY    25  13  61 NW13      29.95R WCI  14
$$

NEZ005>010-023>029-035>040-094-060600-
NORTH CENTRAL NEBRASKA

CITY           SKY/WX    TMP DP  RH WIND       PRES   REMARKS
VALENTINE      CLEAR     18   9  68 W10       29.92R WCI   6
AINSWORTH      CLEAR     20  12  71 NW16      29.91R WCI   6
BROKEN BOW     MOCLDY    26  15  63 N18       29.89S WCI  13
O`NEILL        MOCLDY    26  17  71 W20       29.89S WCI  12
ORD            CLOUDY    27  14  58 NW17G25   29.90R WCI  14
THEDFORD       PTCLDY    20  14  78 NW5       29.91R WCI  13
$$

NEZ041-046>049-061>064-073>077-083>087-060600-
SOUTH CENTRAL NEBRASKA

CITY           SKY/WX    TMP DP  RH WIND       PRES   REMARKS
GRAND ISLAND   CLOUDY    30  17  58 N21G28    29.91R WCI  17
AURORA         CLOUDY    30  19  61 NW24G35   29.89R WCI  16
HASTINGS       CLOUDY    31  20  63 N23       29.89R WCI  18
HEBRON         CLOUDY    34  26  72 N24G31    29.87R WCI  21
HOLDREGE       CLOUDY    29  16  58 N13G21    29.90S WCI  18
KEARNEY *      CLOUDY    28  14  54 N18G26    29.91R WCI  16
YORK           CLOUDY    32  21  64 NW24G31   29.87R WCI  19
$$

NEZ011>018-030>034-042>045-060600-
NORTHEAST NEBRASKA

CITY           SKY/WX    TMP DP  RH WIND       PRES   REMARKS
NORFOLK        CLOUDY    28  16  60 NW20G31   29.87R WCI  15
ALBION         CLOUDY    28  17  61 NW18G24   29.90R WCI  16
BLAIR          CLOUDY    34  29  81 NW15G21   29.82R WCI  24
FREMONT        CLOUDY    32  26  77 NW20G29   29.86R WCI  20
TEKAMAH        CLOUDY    33  24  69 NW25G32   29.85R WCI  20
WAYNE          CLOUDY    29  21  70 NW21      29.85R WCI  16
$$

NEZ050>053-065>068-078-088>093-060600-
SOUTHEAST NEBRASKA

CITY           SKY/WX    TMP DP  RH WIND       PRES   REMARKS
LINCOLN        CLOUDY    35  26  69 N20G31    29.87R WCI  24
OMAHA EPPLEY   FLURRIES  35  29  78 N15       29.83R WCI  25
BEATRICE       CLOUDY    36  29  76 N18G29    29.84R WCI  25
FALLS CITY     CLOUDY    38  35  89 CALM      29.77R
NEBRASKA CITY  CLOUDY    38  32  80 N18G28    29.80R WCI  28
PLATTSMOUTH    FLURRIES  35  30  81 NW21G26   29.81R WCI  24
$$

NEZ044-045-051>053-067-060600-
OMAHA AREA

CITY           SKY/WX    TMP DP  RH WIND       PRES   REMARKS
OMAHA EPPLEY   FLURRIES  35  29  78 N15       29.83R WCI  25
BLAIR          CLOUDY    34  29  81 NW15G21   29.82R WCI  24
FREMONT        CLOUDY    32  26  77 NW20G29   29.86R WCI  20
MILLARD        LGT SNOW  35  31  85 NW13      29.83S WCI  26
OFFUTT AFB     FLURRIES  36  36  99 NW16G25   29.82R WCI  26
PLATTSMOUTH    FLURRIES  35  30  81 NW21G26   29.81R WCI  24
WAHOO          CLOUDY    32  24  72 NW20G26   29.86R WCI  21
$$



USA.gov is the U.S. government's official web portal to all federal, state and local government web resources and services.